Bradford, PA

5:53 AM EDT on July 22, 2017 (GMT -0400)
Bradford Regional

Weather History for KBFD - August, 2012

Change the Weather History Date:

Saturday, August 11, 2012

  Actual Average Record
Temperature  
Mean Temperature 61 °F 65 °F  
Max Temperature 63 °F 76 °F 88 °F (1988)
Min Temperature 59 °F 53 °F 34 °F (1972)
Degree Days  
Heating Degree Days 4 1  
Month to date heating degree days 3  
Since 1 June heating degree days 212  
Since 1 July heating degree days 67  
Cooling Degree Days 0 2  
Month to date cooling degree days 22  
Year to date cooling degree days 146  
Since 1 June cooling degree days 136  
Growing Degree Days 11 (Base 50)    
Moisture  
Dew Point 56 °F    
Average Humidity 84    
Maximum Humidity 93    
Minimum Humidity 72    
Precipitation  
Precipitation 0.00 in 0.13 in 1.45 in (1983)
Month to date precipitation 1.49  
Year to date precipitation 27.33  
Sea Level Pressure  
Sea Level Pressure 29.86 in    
Wind  
Wind Speed 5 mph (SSW)    
Max Wind Speed 12 mph    
Max Gust Speed 21 mph    
Visibility 8 miles    
Events Rain    
T = Trace of Precipitation, MM = Missing Value Source: NWS Daily Summary

Daily Weather History Graph

Daily Weather History Graph

Search for Another Location

Airport or City:

Trip Planner

Search our weather history database for the weather conditions in past years. The results will help you decide how hot, cold, wet, or windy it might be!

Date:

Astronomy

Aug. 11, 2012 Rise Set
Actual Time 6:19 AM EDT 8:19 PM EDT
Civil Twilight 5:48 AM EDT 8:49 PM EDT
Nautical Twilight 5:11 AM EDT 9:26 PM EDT
Astronomical Twilight 4:31 AM EDT 10:06 PM EDT
Moon 12:44 AM EDT (8/11) 3:53 PM EDT (8/11)
Length of Visible Light 15h 00m
Length of Day
14h 00m
Waning Crescent, 33% of the Moon is Illuminated
Aug 11
Waning Crescent
Aug 17
New
Aug 24
First Quarter
Aug 31
Full
Sep 8
Last Quarter

Hourly Weather History & Observations

Time (EDT) Temp. Dew Point Humidity Pressure Visibility Wind Dir Wind Speed Gust Speed Precip Events Conditions
12:23 AM 59.0 °F 57.0 °F 93% 29.81 in 1.5 mi SSE 3.5 mph - N/A   Partly Cloudy
12:26 AM 59.0 °F 57.0 °F 93% 29.81 in 4.0 mi SSE 4.6 mph - N/A   Clear
12:53 AM 59.0 °F 57.0 °F 93% 29.77 in 5.0 mi Calm Calm - N/A   Clear
1:53 AM 62.1 °F 57.9 °F 86% 29.77 in 7.0 mi SSW 3.5 mph - N/A   Clear
2:42 AM 61.0 °F 57.9 °F 90% 29.80 in 6.0 mi SSE 3.5 mph - N/A   Scattered Clouds
2:53 AM 61.0 °F 57.9 °F 90% 29.76 in 6.0 mi Calm Calm - N/A   Mostly Cloudy
3:05 AM 62.1 °F 59.0 °F 90% 29.80 in 6.0 mi Calm Calm - N/A   Mostly Cloudy
3:12 AM 62.1 °F 59.0 °F 90% 29.80 in 6.0 mi Calm Calm - N/A   Mostly Cloudy
3:49 AM 62.6 °F 59.0 °F 88% 29.80 in 6.0 mi Variable 3.5 mph - N/A   Overcast
3:53 AM 63.0 °F 60.1 °F 90% 29.76 in 6.0 mi South 3.5 mph - N/A   Overcast
4:21 AM 63.0 °F 60.1 °F 90% 29.82 in 6.0 mi South 6.9 mph - N/A   Overcast
4:49 AM 62.6 °F 59.0 °F 88% 29.81 in 7.0 mi SSW 6.9 mph - N/A   Overcast
4:53 AM 62.1 °F 57.9 °F 86% 29.77 in 8.0 mi SW 8.1 mph - N/A   Overcast
5:53 AM 62.1 °F 57.9 °F 86% 29.79 in 7.0 mi North - - N/A   Overcast
6:53 AM 61.0 °F 55.9 °F 83% 29.81 in 10.0 mi SW 10.4 mph 20.7 mph N/A   Mostly Cloudy
7:01 AM 61.0 °F 55.9 °F 83% 29.84 in 10.0 mi Variable 6.9 mph - N/A   Mostly Cloudy
7:17 AM 60.1 °F 55.0 °F 83% 29.84 in 10.0 mi SSW 6.9 mph - N/A   Scattered Clouds
7:53 AM 60.1 °F 54.0 °F 80% 29.82 in 10.0 mi SSW 8.1 mph - N/A   Scattered Clouds
8:05 AM 60.1 °F 54.0 °F 80% 29.85 in 10.0 mi SSW 11.5 mph 19.6 mph N/A   Mostly Cloudy
8:53 AM 60.1 °F 52.0 °F 75% 29.83 in 10.0 mi SSW 6.9 mph - N/A   Overcast
9:53 AM 59.0 °F 52.0 °F 78% 29.84 in 10.0 mi SSW 9.2 mph - N/A   Overcast
10:53 AM 59.0 °F 52.0 °F 78% 29.86 in 10.0 mi SW 8.1 mph - N/A   Overcast
11:53 AM 59.0 °F 52.0 °F 78% 29.88 in 10.0 mi South 9.2 mph - N/A   Overcast
12:53 PM 59.0 °F 52.0 °F 78% 29.88 in 10.0 mi South 6.9 mph - N/A   Overcast
1:53 PM 61.0 °F 53.1 °F 75% 29.88 in 10.0 mi South 8.1 mph - N/A   Overcast
2:53 PM 59.0 °F 54.0 °F 83% 29.89 in 4.0 mi SSW 8.1 mph - 0.00 in   Haze
3:35 PM 60.1 °F 54.0 °F 80% 29.91 in 8.0 mi Variable 5.8 mph - 0.00 in   Overcast
3:53 PM 62.1 °F 53.1 °F 72% 29.89 in 10.0 mi South 10.4 mph - 0.00 in   Overcast
4:00 PM 61.0 °F 53.1 °F 75% 29.91 in 9.0 mi SSW 9.2 mph 17.3 mph N/A   Overcast
4:53 PM 61.0 °F 53.1 °F 75% 29.89 in 10.0 mi SSW 10.4 mph - N/A   Overcast
5:40 PM 59.0 °F 55.0 °F 87% 29.93 in 3.0 mi SSW 4.6 mph - 0.00 in Rain Light Rain
5:53 PM 59.0 °F 55.0 °F 87% 29.92 in 5.0 mi Variable 5.8 mph - 0.00 in   Overcast
6:12 PM 59.0 °F 55.0 °F 87% 29.94 in 6.0 mi South 5.8 mph - N/A   Overcast
6:21 PM 59.0 °F 55.0 °F 87% 29.94 in 6.0 mi South 6.9 mph - N/A   Overcast
6:53 PM 60.1 °F 55.0 °F 83% 29.92 in 6.0 mi North - - N/A   Haze
7:04 PM 60.1 °F 55.0 °F 83% 29.95 in 6.0 mi Variable 5.8 mph - N/A   Haze
7:53 PM 60.1 °F 55.0 °F 83% 29.94 in 10.0 mi Variable 5.8 mph - N/A   Overcast
8:53 PM 60.1 °F 55.9 °F 86% 29.94 in 10.0 mi SSW 5.8 mph - N/A   Overcast
9:53 PM 60.1 °F 55.9 °F 86% 29.96 in 10.0 mi Variable 6.9 mph - N/A   Overcast
10:53 PM 61.0 °F 55.9 °F 83% 29.95 in 10.0 mi SSW 8.1 mph - N/A   Overcast
11:10 PM 61.0 °F 55.9 °F 83% 29.97 in 10.0 mi SW 6.9 mph - N/A   Overcast
11:29 PM 61.0 °F 55.9 °F 83% 29.97 in 10.0 mi Variable 3.5 mph - N/A   Overcast
11:53 PM 61.0 °F 55.9 °F 83% 29.95 in 10.0 mi SSW 6.9 mph - N/A   Overcast